| time (UTC) | temp F | wind direction | speed MPH | gust MPH | rain 1hr in | rain 24hr in | rain mn in | humidity % | barometer mb |
| 20260508135330 | 58 | 88 | 4.0 | 5.0 | 0.00 | 0.33 | 0.00 | 73 | 1018.4 |
| 20260508134832 | 58 | 75 | 0.0 | 6.0 | 0.00 | 0.33 | 0.00 | 77 | 1018.2 |
| 20260508134329 | 58 | 36 | 3.0 | 6.0 | 0.00 | 0.33 | 0.00 | 75 | 1018.1 |
| 20260508133830 | 57 | 19 | 3.0 | 6.0 | 0.00 | 0.34 | 0.00 | 76 | 1018.2 |
| 20260508133332 | 57 | 31 | 2.0 | 6.0 | 0.00 | 0.34 | 0.00 | 77 | 1018.2 |
| 20260508133134 | 57 | 29 | 5.0 | 6.0 | 0.00 | 0.34 | 0.00 | 77 | 1018.2 |
| 20260508132347 | 56 | 54 | 4.0 | 6.0 | 0.00 | 0.35 | 0.00 | 80 | 1018.1 |
| 20260508132339 | 56 | 32 | 4.0 | 6.0 | 0.00 | 0.35 | 0.00 | 78 | 1018.1 |
| 20260508131330 | 56 | 48 | 3.0 | 6.0 | 0.00 | 0.35 | 0.00 | 80 | 1018.3 |
| 20260508130831 | 55 | 75 | 4.0 | 5.0 | 0.00 | 0.37 | 0.00 | 84 | 1018.1 |
| 20260508130331 | 56 | 75 | 2.0 | 5.0 | 0.00 | 0.37 | 0.00 | 87 | 1017.9 |
| 20260508125830 | 55 | 76 | 0.0 | 5.0 | 0.00 | 0.37 | 0.00 | 85 | 1017.9 |
| 20260508125331 | 55 | 71 | 3.0 | 6.0 | 0.00 | 0.41 | 0.00 | 85 | 1017.9 |
| 20260508124830 | 54 | 64 | 3.0 | 6.0 | 0.00 | 0.46 | 0.00 | 86 | 1017.8 |
| 20260508124606 | 53 | 45 | 3.0 | 5.0 | 0.00 | 0.55 | 0.00 | 89 | 1017.6 |
| 20260508123830 | 53 | 50 | 4.0 | 6.0 | 0.00 | 0.65 | 0.00 | 93 | 1017.5 |
| 20260508123330 | 53 | 30 | 4.0 | 6.0 | 0.00 | 0.75 | 0.00 | 95 | 1017.5 |
| 20260508122832 | 52 | 37 | 4.0 | 6.0 | 0.00 | 0.86 | 0.00 | 97 | 1017.4 |
| 20260508122330 | 52 | 44 | 2.0 | 6.0 | 0.00 | 0.97 | 0.00 | 98 | 1017.5 |
| 20260508121830 | 52 | 30 | 1.0 | 6.0 | 0.00 | 1.07 | 0.00 | 99 | 1017.4 |
| 20260508121601 | 52 | 43 | 3.0 | 5.0 | 0.00 | 1.19 | 0.00 | 99 | 1017.4 |
| 20260508120830 | 52 | 39 | 3.0 | 4.0 | 0.00 | 1.26 | 0.00 | 99 | 1017.4 |
| 20260508120330 | 51 | 60 | 2.0 | 4.0 | 0.00 | 1.31 | 0.00 | 99 | 1017.3 |
| 20260508115830 | 51 | 64 | 3.0 | 4.0 | 0.00 | 1.34 | 0.00 | 99 | 1017.1 |
| 20260508115330 | 51 | 60 | 2.0 | 4.0 | 0.00 | 1.36 | 0.00 | 99 | 1017.3 |
| 20260508114832 | 51 | 60 | 2.0 | 4.0 | 0.00 | 1.43 | 0.00 | 99 | 1017.1 |
| 20260508114330 | 51 | 48 | 2.0 | 4.0 | 0.00 | 1.47 | 0.00 | 99 | 1017.0 |
| 20260508113830 | 51 | 27 | 2.0 | 4.0 | 0.00 | 1.47 | 0.00 | 99 | 1016.8 |
| 20260508113558 | 50 | 64 | 3.0 | 5.0 | 0.00 | 1.47 | 0.00 | 99 | 1016.8 |
| 20260508112829 | 50 | 34 | 3.0 | 5.0 | 0.00 | 1.47 | 0.00 | 99 | 1016.6 |
| 20260508112634 | 50 | 33 | 2.0 | 5.0 | 0.00 | 1.47 | 0.00 | 99 | 1016.8 |
| 20260508111830 | 50 | 54 | 4.0 | 5.0 | 0.00 | 1.47 | 0.00 | 99 | 1016.8 |
| 20260508111330 | 50 | 45 | 3.0 | 4.0 | 0.00 | 1.47 | 0.00 | 99 | 1016.7 |
| 20260508110834 | 50 | 56 | 3.0 | 4.0 | 0.00 | 1.47 | 0.00 | 99 | 1016.5 |
| 20260508110330 | 50 | 68 | 3.0 | 4.0 | 0.00 | 1.47 | 0.00 | 99 | 1016.6 |
| 20260508105830 | 50 | 90 | 2.0 | 3.0 | 0.00 | 1.47 | 0.00 | 99 | 1016.5 |
| 20260508105331 | 49 | 70 | 2.0 | 3.0 | 0.00 | 1.47 | 0.00 | 99 | 1016.2 |
| 20260508104830 | 50 | 60 | 2.0 | 3.0 | 0.00 | 1.47 | 0.00 | 99 | 1016.2 |
| 20260508104330 | 49 | 76 | 2.0 | 3.0 | 0.00 | 1.47 | 0.00 | 99 | 1015.9 |
| 20260508104105 | 50 | 91 | 2.0 | 4.0 | 0.00 | 1.47 | 0.00 | 99 | 1015.9 |
| 20260508103556 | 50 | 94 | 2.0 | 4.0 | 0.00 | 1.47 | 0.00 | 99 | 1015.8 |
| 20260508102831 | 50 | 73 | 3.0 | 4.0 | 0.00 | 1.47 | 0.00 | 99 | 1015.6 |
| 20260508102330 | 50 | 60 | 2.0 | 4.0 | 0.00 | 1.47 | 0.00 | 99 | 1015.4 |
| 20260508101830 | 50 | 46 | 3.0 | 3.0 | 0.00 | 1.47 | 0.00 | 99 | 1015.6 |
| 20260508101331 | 50 | 73 | 3.0 | 3.0 | 0.00 | 1.47 | 0.00 | 99 | 1015.8 |
| 20260508100830 | 50 | 42 | 2.0 | 3.0 | 0.00 | 1.48 | 0.00 | 99 | 1015.6 |
| 20260508100330 | 51 | 60 | 2.0 | 4.0 | 0.00 | 1.48 | 0.00 | 99 | 1015.5 |
| 20260508095830 | 50 | 79 | 2.0 | 4.0 | 0.00 | 1.48 | 0.00 | 99 | 1015.4 |
| 20260508095405 | 51 | 82 | 3.0 | 6.0 | 0.00 | 1.48 | 0.00 | 99 | 1015.2 |
| 20260508094330 | 51 | 52 | 3.0 | 4.0 | 0.00 | 1.49 | 0.00 | 99 | 1015.1 |
| 20260508093830 | 51 | 53 | 3.0 | 4.0 | 0.00 | 1.49 | 0.00 | 99 | 1015.5 |
| 20260508093332 | 52 | 73 | 2.0 | 2.0 | 0.00 | 1.50 | 0.00 | 99 | 1015.4 |
| 20260508092830 | 52 | 113 | 2.0 | 2.0 | 0.00 | 1.52 | 0.00 | 99 | 1015.4 |
| 20260508092556 | 51 | 60 | 2.0 | 2.0 | 0.00 | 1.52 | 0.00 | 99 | 1015.2 |
| 20260508091832 | 52 | 60 | 0.0 | 3.0 | 0.00 | 1.52 | 0.00 | 99 | 1015.2 |
| 20260508091330 | 51 | 60 | 2.0 | 3.0 | 0.00 | 1.53 | 0.00 | 99 | 1015.0 |
| 20260508090828 | 51 | 81 | 2.0 | 2.0 | 0.00 | 1.53 | 0.00 | 99 | 1015.2 |
| 20260508090328 | 51 | 60 | 2.0 | 2.0 | 0.00 | 1.53 | 0.00 | 99 | 1015.1 |
| 20260508085829 | 51 | 101 | 0.0 | 2.0 | 0.00 | 1.53 | 0.00 | 99 | 1015.4 |
| 20260508085601 | 51 | 68 | 1.0 | 3.0 | 0.00 | 1.54 | 0.00 | 99 | 1015.1 |
| 20260508084830 | 52 | 67 | 0.0 | 3.0 | 0.00 | 1.55 | 0.00 | 99 | 1015.1 |
| 20260508084329 | 51 | 95 | 2.0 | 3.0 | 0.00 | 1.56 | 0.00 | 99 | 1015.0 |
| 20260508084100 | 52 | 76 | 1.0 | 2.0 | 0.00 | 1.56 | 0.00 | 99 | 1015.1 |
| 20260508083330 | 52 | 90 | 1.0 | 3.0 | 0.00 | 1.57 | 0.00 | 99 | 1014.9 |
| 20260508082829 | 52 | 84 | 2.0 | 3.0 | 0.00 | 1.58 | 0.00 | 99 | 1015.0 |
| 20260508082329 | 52 | 73 | 2.0 | 3.0 | 0.00 | 1.59 | 0.00 | 99 | 1014.8 |
| 20260508081828 | 52 | 87 | 2.0 | 3.0 | 0.00 | 1.59 | 0.00 | 99 | 1014.8 |
| 20260508081328 | 52 | 101 | 2.0 | 2.0 | 0.00 | 1.60 | 0.00 | 99 | 1014.7 |
| 20260508080830 | 52 | 69 | 0.0 | 2.0 | 0.00 | 1.62 | 0.00 | 99 | 1014.7 |
| 20260508080329 | 52 | 60 | 1.0 | 3.0 | 0.00 | 1.64 | 0.00 | 99 | 1014.6 |
| 20260508075826 | 52 | 96 | 2.0 | 3.0 | 0.00 | 1.66 | 0.00 | 99 | 1014.5 |
| 20260508075600 | 52 | 69 | 2.0 | 3.0 | 0.00 | 1.68 | 0.00 | 99 | 1014.6 |
| 20260508074828 | 52 | 81 | 0.0 | 3.0 | 0.00 | 1.70 | 0.00 | 99 | 1014.7 |
| 20260508074327 | 53 | 110 | 2.0 | 3.0 | 0.00 | 1.72 | 0.00 | 99 | 1014.4 |
| 20260508074059 | 52 | 87 | 3.0 | 3.0 | 0.00 | 1.73 | 0.00 | 99 | 1014.2 |
| 20260508073327 | 52 | 81 | 2.0 | 3.0 | 0.00 | 1.76 | 0.00 | 99 | 1014.4 |
| 20260508072831 | 53 | 60 | 1.0 | 3.0 | 0.00 | 1.80 | 0.00 | 99 | 1014.3 |
| 20260508072326 | 53 | 79 | 2.0 | 3.0 | 0.00 | 1.84 | 0.00 | 99 | 1014.5 |
| 20260508071827 | 53 | 45 | 1.0 | 2.0 | 0.00 | 1.87 | 0.00 | 99 | 1014.3 |
| 20260508071327 | 53 | 87 | 2.0 | 2.0 | 0.00 | 1.90 | 0.00 | 99 | 1014.2 |
| 20260508070828 | 53 | 93 | 0.0 | 3.0 | 0.00 | 1.94 | 0.00 | 99 | 1014.3 |
| 20260508070327 | 53 | 39 | 2.0 | 3.0 | 0.00 | 2.00 | 0.00 | 99 | 1014.5 |
| 20260508065827 | 53 | 60 | 0.0 | 3.0 | 0.00 | 2.05 | 0.00 | 99 | 1014.4 |
| 20260508065328 | 53 | 76 | 1.0 | 3.0 | 0.00 | 2.09 | 0.00 | 99 | 1014.3 |
| 20260508064827 | 53 | 60 | 0.0 | 3.0 | 0.00 | 2.15 | 0.00 | 99 | 1014.0 |
| 20260508064326 | 53 | 60 | 1.0 | 3.0 | 0.00 | 2.21 | 0.00 | 99 | 1014.2 |
| 20260508063827 | 53 | 60 | 2.0 | 3.0 | 0.00 | 2.29 | 0.00 | 99 | 1014.1 |
| 20260508063334 | 54 | 82 | 2.0 | 2.0 | 0.00 | 2.41 | 0.00 | 99 | 1014.1 |
| 20260508063057 | 54 | 130 | 2.0 | 2.0 | 0.00 | 2.53 | 0.00 | 99 | 1014.4 |
| 20260508062327 | 54 | 140 | 0.0 | 2.0 | 0.00 | 2.62 | 0.00 | 99 | 1014.3 |
| 20260508061826 | 54 | 142 | 0.0 | 2.0 | 0.00 | 2.65 | 0.00 | 99 | 1014.3 |
| 20260508061328 | 54 | 101 | 0.0 | 2.0 | 0.00 | 2.72 | 0.00 | 99 | 1014.6 |
| 20260508060826 | 54 | 60 | 0.0 | 2.0 | 0.00 | 2.78 | 0.00 | 99 | 1014.4 |
| 20260508060557 | 54 | 118 | 0.0 | 2.0 | 0.00 | 2.90 | 0.00 | 99 | 1014.3 |
| 20260508055827 | 54 | 60 | 2.0 | 3.0 | 0.00 | 2.96 | 0.00 | 99 | 1014.3 |
| 20260508055327 | 54 | 93 | 2.0 | 3.0 | 0.00 | 2.98 | 0.00 | 99 | 1014.4 |
| 20260508055100 | 54 | 81 | 0.0 | 3.0 | 0.00 | 2.98 | 0.00 | 99 | 1014.5 |
| 20260508054327 | 54 | 118 | 2.0 | 3.0 | 0.00 | 2.98 | 0.00 | 99 | 1014.4 |
| 20260508054100 | 55 | 60 | 2.0 | 4.0 | 0.00 | 2.98 | 0.00 | 99 | 1014.4 |
| 20260508053327 | 55 | 36 | 2.0 | 4.0 | 0.00 | 2.98 | 0.00 | 99 | 1014.3 |
| 20260508052828 | 55 | 86 | 4.0 | 4.0 | 0.00 | 2.98 | 0.00 | 99 | 1014.4 |
| 20260508052327 | 55 | 105 | 0.0 | 3.0 | 0.00 | 2.98 | 0.00 | 99 | 1014.2 |
| 20260508052101 | 55 | 138 | 0.0 | 3.0 | 0.00 | 2.98 | 0.00 | 99 | 1014.0 |
| 20260508051306 | 55 | 60 | 1.0 | 3.0 | 0.00 | 2.98 | 0.00 | 99 | 1014.3 |
| 20260508051036 | 55 | 120 | 2.0 | 4.0 | 0.00 | 2.98 | 0.00 | 99 | 1014.1 |
| 20260508050305 | 55 | 108 | 3.0 | 4.0 | 0.00 | 2.98 | 0.00 | 99 | 1014.4 |
| 20260508045804 | 55 | 117 | 0.0 | 4.0 | 0.00 | 2.98 | 0.00 | 99 | 1014.2 |
| 20260508045319 | 55 | 94 | 2.0 | 4.0 | 0.00 | 2.98 | 0.00 | 99 | 1014.1 |
| 20260508044815 | 55 | 30 | 0.0 | 4.0 | 0.00 | 2.98 | 0.00 | 99 | 1014.0 |
| 20260508044306 | 55 | 84 | 1.0 | 4.0 | 0.00 | 2.98 | 0.00 | 99 | 1014.1 |
| 20260508043803 | 56 | 41 | 0.0 | 3.0 | 0.00 | 2.98 | 0.00 | 99 | 1013.8 |
| 20260508043305 | 56 | 90 | 1.0 | 3.0 | 0.00 | 2.98 | 0.00 | 99 | 1014.0 |
| 20260508043041 | 56 | 110 | 2.0 | 3.0 | 0.00 | 2.98 | 0.00 | 99 | 1013.6 |
| 20260508042307 | 56 | 173 | 0.0 | 6.0 | 0.00 | 2.98 | 0.00 | 99 | 1013.9 |
| 20260508041803 | 56 | 73 | 2.0 | 6.0 | 0.00 | 2.98 | 0.00 | 99 | 1013.9 |
| 20260508041305 | 56 | 97 | 3.0 | 6.0 | 0.00 | 2.98 | 0.00 | 99 | 1013.8 |
| 20260508040804 | 56 | 127 | 2.0 | 6.0 | 0.00 | 2.98 | 0.00 | 99 | 1013.8 |
| 20260508040305 | 56 | 115 | 0.0 | 6.0 | 0.00 | 2.98 | 0.00 | 99 | 1013.7 |
| 20260508035804 | 56 | 65 | 0.0 | 5.0 | 0.00 | 2.99 | 2.98 | 99 | 1013.6 |
| 20260508035306 | 56 | 136 | 2.0 | 7.0 | 0.00 | 2.99 | 2.98 | 99 | 1013.8 |
| 20260508034805 | 56 | 348 | 2.0 | 8.0 | 0.00 | 2.99 | 2.98 | 99 | 1013.6 |
| 20260508034306 | 56 | 84 | 2.0 | 8.0 | 0.00 | 3.00 | 2.98 | 99 | 1013.5 |
| 20260508033805 | 56 | 49 | 3.0 | 8.0 | 0.00 | 3.00 | 2.98 | 99 | 1013.7 |
| 20260508033306 | 56 | 73 | 4.0 | 6.0 | 0.00 | 3.00 | 2.98 | 99 | 1013.6 |
| 20260508033035 | 56 | 118 | 2.0 | 6.0 | 0.00 | 3.01 | 2.98 | 99 | 1013.8 |
| 20260508032306 | 56 | 90 | 0.0 | 6.0 | 0.00 | 3.02 | 2.98 | 99 | 1013.7 |
| 20260508031806 | 56 | 36 | 2.0 | 2.0 | 0.00 | 3.04 | 2.98 | 99 | 1013.8 |
| 20260508031305 | 56 | 72 | 2.0 | 2.0 | 0.00 | 3.06 | 2.98 | 99 | 1013.6 |
| 20260508031047 | 56 | 84 | 1.0 | 2.0 | 0.00 | 3.09 | 2.98 | 99 | 1013.8 |
| 20260508030306 | 56 | 84 | 0.0 | 3.0 | 0.00 | 3.18 | 2.98 | 99 | 1013.7 |
| 20260508025804 | 56 | 93 | 0.0 | 3.0 | 0.00 | 3.22 | 2.98 | 99 | 1013.5 |
| 20260508025306 | 56 | 73 | 2.0 | 3.0 | 0.00 | 3.24 | 2.98 | 99 | 1013.4 |
| 20260508025035 | 56 | 90 | 1.0 | 3.0 | 0.00 | 3.28 | 2.98 | 99 | 1013.5 |
| 20260508024305 | 56 | 84 | 1.0 | 3.0 | 0.00 | 3.31 | 2.98 | 99 | 1013.4 |
| 20260508023807 | 56 | 85 | 2.0 | 3.0 | 0.00 | 3.35 | 2.98 | 99 | 1013.4 |
| 20260508023536 | 56 | 79 | 2.0 | 3.0 | 0.00 | 3.38 | 2.98 | 99 | 1013.4 |
| 20260508022805 | 56 | 69 | 1.0 | 4.0 | 0.00 | 3.41 | 2.98 | 99 | 1013.3 |
| 20260508022307 | 56 | 51 | 0.0 | 4.0 | 0.00 | 3.43 | 2.98 | 99 | 1013.2 |
| 20260508021804 | 56 | 60 | 3.0 | 3.0 | 0.00 | 3.45 | 2.98 | 99 | 1013.0 |
| 20260508021306 | 56 | 45 | 0.0 | 4.0 | 0.00 | 3.47 | 2.98 | 99 | 1013.1 |
| 20260508020806 | 56 | 83 | 2.0 | 4.0 | 0.00 | 3.48 | 2.98 | 99 | 1013.0 |
| 20260508020306 | 56 | 79 | 2.0 | 3.0 | 0.00 | 3.50 | 2.98 | 99 | 1013.0 |
| 20260508020037 | 56 | 79 | 2.0 | 3.0 | 0.00 | 3.57 | 2.98 | 99 | 1012.9 |
| 20260508015306 | 57 | 80 | 2.0 | 3.0 | 0.00 | 3.61 | 2.98 | 99 | 1012.7 |
| 20260508014805 | 57 | 81 | 0.0 | 3.0 | 0.00 | 3.62 | 2.98 | 99 | 1012.5 |
| 20260508014305 | 57 | 85 | 2.0 | 3.0 | 0.00 | 3.63 | 2.98 | 99 | 1012.7 |
| 20260508013804 | 57 | 89 | 2.0 | 4.0 | 0.00 | 3.63 | 2.98 | 99 | 1012.5 |
| 20260508013305 | 57 | 79 | 2.0 | 4.0 | 0.00 | 3.63 | 2.98 | 99 | 1012.5 |
| 20260508012805 | 57 | 74 | 3.0 | 6.0 | 0.00 | 3.63 | 2.98 | 99 | 1012.5 |
| 20260508012307 | 57 | 69 | 2.0 | 6.0 | 0.00 | 3.63 | 2.98 | 99 | 1012.0 |
| 20260508011805 | 57 | 57 | 4.0 | 6.0 | 0.00 | 3.63 | 2.98 | 99 | 1012.3 |
| 20260508011305 | 57 | 72 | 4.0 | 6.0 | 0.00 | 3.65 | 2.98 | 99 | 1012.2 |
| 20260508010815 | 57 | 101 | 0.0 | 5.0 | 0.01 | 3.73 | 2.98 | 99 | 1012.2 |
| 20260508010809 | 57 | 54 | 4.0 | 4.0 | 0.00 | 3.66 | 2.98 | 99 | 1012.4 |
| 20260508005805 | 57 | 71 | 2.0 | 5.0 | 0.01 | 3.83 | 2.98 | 99 | 1012.1 |
| 20260508005306 | 57 | 80 | 2.0 | 5.0 | 0.02 | 3.84 | 2.98 | 99 | 1011.9 |
| 20260508004805 | 57 | 73 | 4.0 | 6.0 | 0.02 | 3.84 | 2.98 | 99 | 1011.5 |
| 20260508004305 | 58 | 67 | 4.0 | 6.0 | 0.03 | 3.84 | 2.98 | 99 | 1011.7 |
| 20260508004037 | 57 | 105 | 3.0 | 7.0 | 0.06 | 3.84 | 2.98 | 99 | 1011.8 |
| 20260508003306 | 58 | 74 | 4.0 | 7.0 | 0.12 | 3.84 | 2.98 | 99 | 1011.5 |
| 20260508002805 | 58 | 79 | 2.0 | 7.0 | 0.20 | 3.84 | 2.98 | 98 | 1011.5 |
| 20260508002307 | 58 | 57 | 4.0 | 10.0 | 0.28 | 3.84 | 2.98 | 98 | 1011.4 |
| 20260508001803 | 57 | 57 | 5.0 | 10.0 | 0.29 | 3.84 | 2.98 | 98 | 1011.0 |
| 20260508001307 | 58 | 15 | 3.0 | 9.0 | 0.29 | 3.84 | 2.98 | 98 | 1010.8 |
| 20260508000804 | 57 | 77 | 5.0 | 9.0 | 0.29 | 3.84 | 2.98 | 98 | 1010.6 |
| 20260508000305 | 58 | 53 | 6.0 | 10.0 | 0.28 | 3.84 | 2.97 | 98 | 1010.7 |
| 20260507235805 | 58 | 78 | 5.0 | 10.0 | 0.28 | 3.56 | 2.97 | 98 | 1010.2 |
| 20260507235307 | 58 | 46 | 4.0 | 9.0 | 0.28 | 3.56 | 2.97 | 97 | 1010.0 |
| 20260507234804 | 58 | 16 | 7.0 | 9.0 | 0.27 | 3.56 | 2.96 | 97 | 1010.1 |
| 20260507234305 | 58 | 40 | 7.0 | 9.0 | 0.26 | 3.56 | 2.95 | 97 | 1009.7 |
| 20260507233804 | 58 | 64 | 7.0 | 9.0 | 0.23 | 3.56 | 2.92 | 96 | 1009.7 |
| 20260507233533 | 58 | 55 | 5.0 | 11.0 | 0.17 | 3.56 | 2.85 | 95 | 1009.8 |
| 20260507233030 | 59 | 97 | 2.0 | 11.0 | 0.08 | 3.56 | 2.76 | 94 | 1010.0 |
| 20260507232306 | 59 | 40 | 5.0 | 15.0 | 0.00 | 3.56 | 2.69 | 93 | 1010.2 |
| 20260507231805 | 60 | 77 | 5.0 | 19.0 | 0.00 | 3.56 | 2.69 | 91 | 1009.0 |
| 20260507231305 | 60 | 26 | 9.0 | 19.0 | 0.00 | 3.56 | 2.69 | 90 | 1009.4 |
| 20260507230804 | 60 | 29 | 9.0 | 17.0 | 0.00 | 3.56 | 2.69 | 90 | 1009.2 |
| 20260507230305 | 60 | 56 | 7.0 | 19.0 | 0.00 | 3.56 | 2.69 | 90 | 1009.5 |
| 20260507225804 | 60 | 38 | 7.0 | 19.0 | 0.00 | 3.56 | 2.69 | 90 | 1009.3 |
| 20260507225536 | 61 | 94 | 6.0 | 23.0 | 0.00 | 3.56 | 2.69 | 90 | 1009.1 |
| 20260507224804 | 61 | 47 | 11.0 | 24.0 | 0.00 | 3.56 | 2.69 | 89 | 1008.9 |
| 20260507224305 | 61 | 64 | 8.0 | 24.0 | 0.00 | 3.56 | 2.69 | 89 | 1008.6 |
| 20260507223805 | 61 | 4 | 15.0 | 24.0 | 0.00 | 3.56 | 2.69 | 89 | 1008.8 |
| 20260507223305 | 62 | 12 | 7.0 | 21.0 | 0.00 | 3.56 | 2.69 | 88 | 1008.5 |
| 20260507222804 | 63 | 80 | 9.0 | 39.0 | 0.00 | 3.56 | 2.69 | 88 | 1008.2 |
| 20260507222310 | 63 | 354 | 12.0 | 39.0 | 0.00 | 3.56 | 2.69 | 86 | 1008.6 |
| 20260507221804 | 66 | 30 | 6.0 | 28.0 | 0.00 | 3.56 | 2.69 | 83 | 1008.3 |
| 20260507221306 | 69 | 20 | 9.0 | 11.0 | 0.00 | 3.56 | 2.69 | 78 | 1008.1 |
| 20260507220804 | 74 | 312 | 2.0 | 6.0 | 0.00 | 3.56 | 2.69 | 75 | 1007.6 |
| 20260507220306 | 75 | 253 | 4.0 | 5.0 | 0.00 | 3.56 | 2.69 | 74 | 1007.5 |
| 20260507215805 | 76 | 240 | 2.0 | 5.0 | 0.00 | 3.56 | 2.69 | 73 | 1007.4 |
| 20260507215307 | 76 | 218 | 2.0 | 5.0 | 0.00 | 3.56 | 2.69 | 72 | 1007.1 |
| 20260507214804 | 76 | 176 | 2.0 | 5.0 | 0.00 | 3.56 | 2.69 | 74 | 1007.1 |
| 20260507214305 | 76 | 233 | 2.0 | 7.0 | 0.00 | 3.56 | 2.69 | 72 | 1007.2 |
| 20260507214036 | 76 | 222 | 4.0 | 8.0 | 0.00 | 3.56 | 2.69 | 72 | 1007.1 |
| 20260507213536 | 76 | 210 | 4.0 | 8.0 | 0.00 | 3.56 | 2.69 | 71 | 1006.9 |
| 20260507212804 | 76 | 225 | 0.0 | 8.0 | 0.00 | 3.56 | 2.69 | 70 | 1006.9 |
| 20260507212308 | 76 | 195 | 0.0 | 8.0 | 0.00 | 3.56 | 2.69 | 70 | 1007.0 |
| 20260507212034 | 75 | 227 | 2.0 | 8.0 | 0.00 | 3.56 | 2.69 | 71 | 1007.1 |
| 20260507211534 | 76 | 304 | 2.0 | 5.0 | 0.00 | 3.56 | 2.69 | 72 | 1007.1 |
| 20260507211044 | 75 | 211 | 2.0 | 6.0 | 0.00 | 3.56 | 2.69 | 72 | 1006.8 |
| 20260507210305 | 76 | 232 | 2.0 | 6.0 | 0.00 | 3.56 | 2.69 | 70 | 1007.0 |
| 20260507205805 | 77 | 259 | 6.0 | 6.0 | 0.00 | 3.56 | 2.69 | 69 | 1007.3 |
| 20260507205307 | 77 | 256 | 5.0 | 5.0 | 0.00 | 3.56 | 2.69 | 70 | 1007.1 |
| 20260507204804 | 76 | 150 | 0.0 | 6.0 | 0.00 | 3.56 | 2.69 | 70 | 1007.2 |
| 20260507204305 | 76 | 64 | 3.0 | 6.0 | 0.00 | 3.56 | 2.69 | 71 | 1007.1 |
| 20260507203804 | 75 | 224 | 0.0 | 5.0 | 0.00 | 3.56 | 2.69 | 72 | 1007.1 |
| 20260507203305 | 75 | 262 | 2.0 | 6.0 | 0.00 | 3.56 | 2.69 | 74 | 1007.0 |
| 20260507202804 | 75 | 209 | 3.0 | 6.0 | 0.00 | 3.56 | 2.69 | 72 | 1007.3 |
| 20260507202307 | 75 | 199 | 2.0 | 6.0 | 0.00 | 3.56 | 2.69 | 71 | 1007.0 |
| 20260507201804 | 76 | 216 | 1.0 | 4.0 | 0.00 | 3.56 | 2.69 | 73 | 1007.3 |
| 20260507201535 | 75 | 240 | 0.0 | 4.0 | 0.00 | 3.56 | 2.69 | 73 | 1007.3 |
| 20260507201032 | 76 | 210 | 2.0 | 7.0 | 0.00 | 3.56 | 2.69 | 73 | 1007.2 |
| 20260507200611 | 75 | 233 | 0.0 | 7.0 | 0.00 | 3.56 | 2.69 | 72 | 1007.4 |
| 20260507195805 | 75 | 210 | 2.0 | 6.0 | 0.00 | 3.56 | 2.69 | 72 | 1007.5 |
| 20260507195306 | 75 | 220 | 2.0 | 6.0 | 0.00 | 3.56 | 2.69 | 76 | 1007.6 |
| 20260507195038 | 75 | 282 | 3.0 | 5.0 | 0.00 | 3.56 | 2.69 | 75 | 1007.7 |
| 20260507194305 | 75 | 264 | 3.0 | 5.0 | 0.00 | 3.56 | 2.69 | 76 | 1008.0 |
| 20260507193804 | 74 | 224 | 0.0 | 6.0 | 0.00 | 3.56 | 2.69 | 75 | 1008.3 |
| 20260507193307 | 74 | 240 | 2.0 | 6.0 | 0.00 | 3.56 | 2.69 | 75 | 1008.2 |
| 20260507192817 | 74 | 121 | 0.0 | 6.0 | 0.00 | 3.56 | 2.69 | 76 | 1008.4 |
| 20260507192810 | 75 | 330 | 1.0 | 6.0 | 0.00 | 3.56 | 2.69 | 79 | 1008.1 |
| 20260507191805 | 74 | 231 | 0.0 | 6.0 | 0.00 | 3.56 | 2.69 | 79 | 1008.2 |
| 20260507191306 | 74 | 256 | 1.0 | 4.0 | 0.00 | 3.56 | 2.69 | 83 | 1008.4 |
| 20260507190804 | 72 | 336 | 0.0 | 4.0 | 0.00 | 3.56 | 2.69 | 84 | 1008.4 |
| 20260507190305 | 71 | 281 | 2.0 | 5.0 | 0.00 | 3.56 | 2.69 | 84 | 1008.3 |
| 20260507185805 | 71 | 270 | 2.0 | 5.0 | 0.00 | 3.56 | 2.69 | 85 | 1008.3 |
| 20260507185318 | 71 | 301 | 0.0 | 6.0 | 0.00 | 3.56 | 2.69 | 85 | 1008.4 |
| 20260507184805 | 69 | 240 | 1.0 | 6.0 | 0.00 | 3.56 | 2.69 | 88 | 1008.1 |
| 20260507184306 | 68 | 204 | 2.0 | 6.0 | 0.00 | 3.56 | 2.69 | 96 | 1008.2 |
| 20260507183803 | 68 | 198 | 2.0 | 5.0 | 0.00 | 3.57 | 2.69 | 99 | 1008.4 |
| 20260507183308 | 67 | 225 | 0.0 | 4.0 | 0.00 | 3.57 | 2.69 | 99 | 1008.3 |
| 20260507182804 | 68 | 60 | 0.0 | 5.0 | 0.00 | 3.57 | 2.69 | 99 | 1008.3 |
| 20260507182307 | 68 | 209 | 0.0 | 5.0 | 0.00 | 3.57 | 2.69 | 99 | 1008.2 |
| 20260507181805 | 68 | 55 | 0.0 | 4.0 | 0.00 | 3.58 | 2.69 | 99 | 1008.1 |
| 20260507181308 | 68 | 75 | 2.0 | 3.0 | 0.00 | 3.62 | 2.69 | 99 | 1008.3 |
| 20260507180805 | 67 | 324 | 2.0 | 5.0 | 0.00 | 3.67 | 2.69 | 99 | 1008.2 |
| 20260507180305 | 67 | 253 | 2.0 | 5.0 | 0.00 | 3.67 | 2.69 | 99 | 1008.7 |
| 20260507175804 | 67 | 30 | 0.0 | 5.0 | 0.00 | 3.67 | 2.69 | 99 | 1008.5 |
| 20260507175307 | 67 | 204 | 0.0 | 5.0 | 0.00 | 3.67 | 2.69 | 99 | 1008.8 |
| 20260507174804 | 67 | 210 | 1.0 | 4.0 | 0.00 | 3.67 | 2.69 | 99 | 1008.9 |
| 20260507174305 | 66 | 39 | 2.0 | 4.0 | 0.00 | 3.67 | 2.69 | 99 | 1009.1 |
| 20260507173806 | 66 | 198 | 0.0 | 4.0 | 0.00 | 3.67 | 2.69 | 99 | 1009.0 |
| 20260507173305 | 66 | 225 | 0.0 | 4.0 | 0.00 | 3.67 | 2.69 | 99 | 1009.1 |
| 20260507172804 | 67 | 227 | 2.0 | 4.0 | 0.00 | 3.67 | 2.69 | 99 | 1009.1 |
| 20260507172307 | 67 | 199 | 0.0 | 4.0 | 0.00 | 3.67 | 2.69 | 99 | 1009.0 |
| 20260507171804 | 67 | 170 | 2.0 | 6.0 | 0.00 | 3.67 | 2.69 | 99 | 1008.9 |
| 20260507171306 | 67 | 60 | 3.0 | 6.0 | 0.00 | 3.67 | 2.69 | 99 | 1008.8 |
| 20260507170818 | 67 | 236 | 3.0 | 4.0 | 0.00 | 3.67 | 2.69 | 99 | 1008.7 |
| 20260507170811 | 67 | 292 | 4.0 | 6.0 | 0.00 | 3.67 | 2.69 | 99 | 1009.0 |
| 20260507165805 | 67 | 170 | 2.0 | 4.0 | 0.00 | 3.67 | 2.69 | 99 | 1008.9 |
| 20260507165306 | 67 | 195 | 0.0 | 4.0 | 0.00 | 3.67 | 2.69 | 99 | 1008.7 |
| 20260507164804 | 67 | 162 | 2.0 | 4.0 | 0.00 | 3.67 | 2.69 | 99 | 1008.9 |
| 20260507164305 | 66 | 117 | 3.0 | 4.0 | 0.00 | 3.67 | 2.69 | 99 | 1009.2 |
| 20260507163804 | 66 | 130 | 0.0 | 4.0 | 0.00 | 3.67 | 2.69 | 99 | 1009.5 |
| 20260507163306 | 66 | 176 | 0.0 | 3.0 | 0.00 | 3.67 | 2.69 | 99 | 1009.4 |
| 20260507163107 | 66 | 224 | 0.0 | 4.0 | 0.00 | 3.67 | 2.69 | 99 | 1009.5 |
| 20260507162307 | 66 | 240 | 2.0 | 4.0 | 0.00 | 3.67 | 2.69 | 99 | 1009.5 |
| 20260507161805 | 66 | 231 | 1.0 | 3.0 | 0.00 | 3.67 | 2.69 | 99 | 1009.4 |
| 20260507161539 | 66 | 190 | 0.0 | 3.0 | 0.00 | 3.67 | 2.69 | 99 | 1009.1 |
| 20260507160804 | 66 | 216 | 1.0 | 3.0 | 0.00 | 3.67 | 2.69 | 99 | 1009.5 |
| 20260507160305 | 66 | 182 | 0.0 | 3.0 | 0.00 | 3.67 | 2.69 | 99 | 1009.3 |
| 20260507155804 | 67 | 210 | 1.0 | 3.0 | 0.00 | 3.67 | 2.69 | 99 | 1009.1 |
| 20260507155306 | 66 | 158 | 0.0 | 3.0 | 0.01 | 3.67 | 2.69 | 99 | 1008.5 |
| 20260507154804 | 66 | 130 | 2.0 | 3.0 | 0.01 | 3.67 | 2.69 | 99 | 1008.4 |
| 20260507154305 | 66 | 185 | 0.0 | 3.0 | 0.02 | 3.67 | 2.69 | 99 | 1008.4 |
| 20260507153804 | 66 | 150 | 0.0 | 3.0 | 0.02 | 3.67 | 2.69 | 99 | 1008.1 |
| 20260507153306 | 66 | 150 | 0.0 | 2.0 | 0.02 | 3.67 | 2.69 | 99 | 1008.4 |
| 20260507152804 | 66 | 150 | 0.0 | 2.0 | 0.02 | 3.67 | 2.69 | 99 | 1008.3 |
| 20260507152318 | 66 | 231 | 0.0 | 2.0 | 0.04 | 3.67 | 2.69 | 99 | 1008.4 |
| 20260507152308 | 66 | 240 | 1.0 | 2.0 | 0.04 | 3.67 | 2.69 | 99 | 1008.6 |
| 20260507151305 | 66 | 240 | 0.0 | 2.0 | 0.04 | 3.67 | 2.69 | 99 | 1008.6 |
| 20260507150813 | 66 | 240 | 0.0 | 3.0 | 0.04 | 3.67 | 2.69 | 99 | 1009.3 |
| 20260507150806 | 65 | 319 | 0.0 | 2.0 | 0.04 | 3.67 | 2.69 | 99 | 1008.7 |
| 20260507145836 | 65 | 249 | 0.0 | 3.0 | 0.04 | 3.63 | 2.69 | 99 | 1009.9 |
| 20260507144805 | 65 | 231 | 0.0 | 3.0 | 0.04 | 3.63 | 2.69 | 99 | 1009.8 |
| 20260507144305 | 66 | 224 | 1.0 | 2.0 | 0.03 | 3.63 | 2.68 | 99 | 1009.8 |
| 20260507143805 | 66 | 232 | 0.0 | 2.0 | 0.03 | 3.63 | 2.67 | 99 | 1009.8 |
| 20260507143305 | 65 | 225 | 0.0 | 2.0 | 0.03 | 3.63 | 2.67 | 99 | 1010.0 |
| 20260507142804 | 65 | 330 | 0.0 | 3.0 | 0.02 | 3.63 | 2.67 | 99 | 1010.0 |
| 20260507142307 | 65 | 224 | 1.0 | 3.0 | 0.02 | 3.63 | 2.66 | 99 | 1010.1 |
| 20260507141804 | 65 | 223 | 2.0 | 3.0 | 0.02 | 3.63 | 2.65 | 99 | 1009.9 |
| 20260507141533 | 65 | 240 | 1.0 | 3.0 | 0.02 | 3.63 | 2.65 | 99 | 1010.1 |
| 20260507140804 | 65 | 224 | 0.0 | 3.0 | 0.03 | 3.63 | 2.65 | 99 | 1009.9 |
| 20260507140305 | 65 | 195 | 2.0 | 2.0 | 0.04 | 3.63 | 2.65 | 99 | 1009.7 |
| 20260507140033 | 65 | 162 | 2.0 | 2.0 | 0.05 | 3.59 | 2.65 | 99 | 1009.6 |